Regional Weather Roundup
Issued by NWS Newport/Morehead, NC

Current Version | Previous Version | Graphics & Text | Print | Product List | Glossary On
Versions: 1 2 3 4 5 6 7 8 9 10 11 12 13 14 15 16 17 18 19 20 21 22 23 24 25 26 27 28 29 30 31 32 33 34 35 36 37 38 39 40 41 42 43 44 45 46 47 48 49 50
000 ASUS42 KMHX 270414 RWRMHX WEATHER ROUNDUP FOR EASTERN NORTH CAROLINA NATIONAL WEATHER SERVICE NEWPORT/MOREHEAD CITY NC 1200 AM EDT SAT MAY 27 2017 NOTE: "FAIR" INDICATES FEW OR NO CLOUDS BELOW 12,000 FEET WITH NO SIGNIFICANT WEATHER AND/OR OBSTRUCTIONS TO VISIBILITY NCZ015>017-031-032-045>047-102-103-270500- NORTH COAST CITY SKY/WX TMP DP RH WIND PRES REMARKS EDENTON CLEAR 68 62 81 CALM 29.95S ELIZABETH CITY CLEAR 65 61 87 SW7 29.93S KITTY HAWK CLEAR 70 60 72 CALM 29.93S MANTEO CLEAR 71 62 73 CALM 29.95S $$ NCZ045>047-081-094-103-104-270500- CENTRAL COAST CITY SKY/WX TMP DP RH WIND PRES REMARKS FRISCO CLEAR 72 67 84 W5 29.96R $$ NCZ095-097-098-100-101-270500- SOUTHERN COAST CITY SKY/WX TMP DP RH WIND PRES REMARKS BEAUFORT CLEAR 73 70 90 SW7 29.97R CEDAR ISLAND NOT AVBL JACKSONVILLE CLEAR 68 63 84 SW6 29.97S PINEY ISLAND CLEAR N/A N/A N/A SW7 29.96S WILMINGTON CLEAR 68 65 90 S3 29.98R $$ NCZ011>013-027>030-043-044-078>080-089-090>093-098-270500- COASTAL PLAIN CITY SKY/WX TMP DP RH WIND PRES REMARKS AHOSKIE NOT AVBL CLINTON CLEAR 65 60 84 CALM 29.97S ELIZABETHTOWN CLEAR 68 59 72 CALM 29.98R GOLDSBORO NOT AVBL GREENVILLE CLEAR 64 63 94 CALM 29.97S HAVELOCK CLEAR 66 60 81 CALM 29.98R KENANSVILLE CLEAR 61 59 94 CALM 29.97S KINSTON CLEAR 62 60 91 CALM 29.97R NEW BERN CLEAR 63 61 93 CALM 29.97S RICHLANDS CLEAR 62 60 93 CALM 29.98R ROCKY MOUNT CLEAR 62 61 96 CALM 29.95S WASHINGTON CLEAR 66 60 81 CALM 29.96R WHITEVILLE CLEAR 67 59 74 SW3 29.98S $$ AMZ130-135-150-152-154-156-158-170-250-252-270-ANZ085-086-088-633-658-670-270500- MARINE OBSERVATIONS STATION/POSITION TIME TEMP WIND PRES WAVE SWELL AIR SEA DIR/SP/G HT/PER HT/PER (UTC) (F) (DEG/KT/KT) (MB) (FT/S) (FT/S) CHESAPEAKE LIGHT NOT AVBL 64 E VA BEACH 0350 65 63 220/ 6/ 8 1013.4 3/ 8 3/ 8 DUCK 0342 72 63 220/ 6/ 7 1013.1 2 E DUCK 0400 64 N/A 1/ 8 OREGON INLET 0342 69 73 210/ 5/ 5 1013.7 13E OREGON INLT 0348 65 N/A 2/ 7 2/ 7 HATTERAS CG 0342 72 74 230/ 5/ 6 1014.2 DIAMOND BUOY 0350 75 79 260/ 14/ 16 1014.4 5/ 7 3/ 7 CAPE LOOKOUT 0400 73 250/ 9/ 11 1014.8 BEAUFORT LAB 0342 73 71 240/ 3/ 8 1014.2 30 SE NEW RVR IN 0308 75 77 250/ 16/ 19 1014.7 30 SE NEW RVR IN 0343 78 N/A 6/ 7 27 SE WRIGHTSVLE 0308 75 76 230/ 16/ 19 1014.4 5 SE WRIGHTSVLE 0308 74 74 240/ 10/ 14 1014.9 225 S CAPE HAT 0350 77 77 260/ 12/ 16 1016.7 5/ 7 3/ 7 41 SE CHARLESTON 0350 74 74 220/ 14/ 16 1016.0 3/ 7 2/ 7 $$

USA.gov is the U.S. government's official web portal to all federal, state and local government web resources and services.